[[{"header":{"parameterUnit":"m.s-1","parameterCategory":1,"la1":30.2991,"la2":30.254,"lo1":-89.0895,"lo2":-89.0444,"dy":0.0017,"dx":0.0017,"nx":28,"ny":28,"refTime":"2025-09-18T21:00:00:Z","depth":0,"parameterNumber":2,"parameterNumberName":"U-component_of_WINDS"},"data":[0,0,0,0,0,0,0,0,0,0,0,0,0,0,0,0,0,0,0,0,0,0,0,0,0,0,0,0,0,0,0,0,0,0,0,0,0,0,0,0,0,0,0,0,0,0,0,0,0,0,0,0,0,0,0,0,0,0,-0.9008,-0.9008,0,-0.9048,-0.9049,-0.9049,-0.9016,-0.9015,-0.9013,-0.9012,-0.9055,-0.9058,-0.906,0,0,0,0,0,0,0,0,0,0,0,0,0,-0.8903,-0.8905,-0.9008,-0.9008,-0.9009,-0.9048,-0.9049,-0.9049,-0.9016,-0.9015,-0.9013,-0.9011,-0.9054,-0.9057,-0.906,0,0,0,0,0,0,0,0,0,0,0,0,0,-0.8946,-0.8905,-0.9007,-0.8997,-0.8996,-0.9048,-0.9049,-0.9049,-0.9017,-0.9015,-0.9012,-0.9011,-0.9053,-0.9057,-0.9061,-0.9126,0,0,-0.9072,-0.9073,0,0,0,0,0,0,0,0,-0.8944,-0.895,-0.8998,-0.8998,-0.8997,-0.9025,-0.9028,-0.9075,-0.9017,-0.9009,-0.9012,-0.9009,-0.9047,-0.9051,-0.9063,-0.9128,-0.9129,-0.9072,-0.9074,-0.9076,-0.9077,0,0,0,0,0,0,0,-0.8941,-0.8948,-0.9024,-0.8999,-0.8998,-0.899,-0.8994,-0.9036,-0.9039,-0.901,-0.9007,-0.9012,-0.9046,-0.906,-0.9064,-0.913,-0.9072,-0.9075,-0.9078,-0.9079,-0.9251,-0.9253,0,0,0,0,0,0,-0.8939,-0.8946,-0.9022,-0.9025,-0.8965,-0.8994,-0.8998,-0.9018,-0.9039,-0.904,-0.9014,-0.9011,-0.9055,-0.906,-0.9065,-0.9144,-0.9076,-0.9079,-0.9082,-0.9248,-0.9251,-0.9254,0,0,0,0,0,0,-0.8937,-0.8946,-0.9021,-0.8985,-0.8994,-0.8998,-0.9021,-0.902,-0.9034,-0.9042,-0.9043,-0.9027,-0.9053,-0.906,-0.9111,-0.9145,-0.9081,-0.9084,-0.9245,-0.9249,-0.9252,-0.9301,0,0,0,0,0,0,-0.8934,-0.8945,-0.897,-0.8986,-0.8996,-0.9065,-0.9023,-0.9022,-0.904,-0.9036,-0.9055,-0.9056,-0.9052,-0.9106,-0.9115,-0.9149,-0.9087,-0.9242,-0.9247,-0.9251,-0.9296,-0.9306,-0.9314,0,0,0,0,0,-0.893,-0.8982,-0.8971,-0.8981,-0.9026,-0.9067,-0.9073,-0.9067,-0.9043,-0.9068,-0.9073,-0.9055,-0.9139,-0.9111,-0.9121,-0.9157,-0.924,-0.9246,-0.9251,-0.9293,-0.9304,-0.9313,0,0,0,0,0,0,-0.8971,-0.8984,-0.8972,-0.903,-0.9048,-0.9062,-0.9093,-0.9079,-0.9105,-0.91,-0.9092,-0.9096,-0.915,-0.9158,-0.9126,-0.9221,-0.9186,-0.9193,-0.9214,-0.9225,-0.9234,-0.9232,-0.909,0,0,0,0,0,-0.8986,-0.9018,-0.9028,-0.9078,-0.9088,-0.9089,-0.9106,-0.91,-0.9118,-0.9126,-0.9135,-0.9154,-0.9184,-0.9205,-0.9233,-0.9297,-0.9301,-0.9326,-0.9335,-0.9342,-0.9349,-0.9385,-0.9396,-0.9271,-0.9271,-0.9271,0,0,-0.9019,-0.903,-0.9051,-0.9087,-0.91,-0.9134,-0.9095,-0.9133,-0.9158,-0.9132,-0.918,-0.9188,-0.9208,-0.9266,-0.9291,-0.9274,-0.9384,-0.9349,-0.9354,-0.9358,-0.9391,-0.9403,-0.9414,-0.9274,-0.9274,-0.9273,0,0,-0.9097,-0.9107,-0.9151,-0.9165,-0.9185,-0.9185,-0.9196,-0.9211,-0.9215,-0.9264,-0.9245,-0.9275,-0.9327,-0.9343,-0.9358,-0.9441,-0.9426,-0.945,-0.9496,-0.9531,-0.9541,-0.955,-0.9581,-0.9592,-0.9457,-0.9457,-0.9457,0,-0.9135,-0.9185,-0.9176,-0.9215,-0.9232,-0.9208,-0.9253,-0.9267,-0.9295,-0.9308,-0.9288,-0.9354,-0.9365,-0.9427,-0.9447,-0.9459,-0.9472,-0.9449,-0.954,-0.9549,-0.9557,-0.9587,-0.9598,-0.946,-0.946,-0.9459,-0.9459,0,-0.9232,-0.9267,-0.93,-0.9328,-0.9348,-0.939,-0.9388,-0.941,-0.9401,-0.9404,-0.9454,-0.9467,-0.9499,-0.9512,-0.9505,-0.9573,-0.9562,-0.9541,-0.9506,-0.9572,-0.96,-0.9611,-0.9464,-0.9463,-0.9462,-0.9462,0,0,-0.9338,-0.936,-0.9373,-0.9385,-0.9405,-0.9432,-0.9473,-0.9503,-0.9522,-0.9542,-0.9577,-0.9622,-0.9603,-0.962,-0.9613,-0.9643,-0.971,-0.9619,-0.9619,-0.9637,-0.9789,-0.9806,-0.9819,-0.9699,-0.9702,-0.9703,-0.9787,0,-0.9418,-0.9489,-0.9482,-0.955,-0.9582,-0.956,-0.9596,-0.9612,-0.9616,-0.9644,-0.9648,-0.968,-0.9652,-0.9662,-0.969,-0.9696,-0.9741,-0.969,-0.9733,-0.9735,-0.9731,-0.9833,-0.9852,-0.9931,-0.9798,-0.98,-0.9801,0,-0.9521,-0.9545,-0.9616,-0.9631,-0.9645,-0.9677,-0.9705,-0.9731,-0.975,-0.975,-0.9769,-0.9757,-0.9799,-0.9761,-0.9819,-0.9784,-0.9801,-0.9807,-0.981,-0.9816,-0.9774,-0.9844,-0.9956,-0.9969,-0.9818,-0.9817,-0.9816,0,-0.9594,-0.9643,-0.9692,-0.9704,-0.9722,-0.9746,-0.9755,-0.977,-0.9789,-0.9813,-0.9825,-0.9854,-0.987,-0.9892,-0.9889,-0.9862,-0.9949,-0.991,-0.9952,-0.9952,-0.9973,-0.9972,-1.0091,-0.998,-0.998,-0.998,-0.998,0,-0.9685,-0.973,-0.9725,-0.9756,-0.9806,-0.9797,-0.9846,-0.9852,-0.9867,-0.9899,-0.988,-0.9911,-0.9903,-0.9934,-0.9931,-0.9981,-0.9987,-0.999,-0.9989,-0.9993,-0.9993,-1.0006,-1.0001,-0.9983,-0.9982,-0.9982,-0.9981,0,-0.9776,-0.9774,-0.9827,-0.984,-0.9844,-0.9881,-0.9892,-0.9921,-0.9922,-0.9963,-0.9972,-0.9974,-1.0009,-1.0007,-1.0046,-1.0045,-1.0106,-1.0098,-1.01,-1.0099,-1.0142,-1.0139,-1.0275,-1.0293,-1.0168,-1.017,-1.0171,0,-0.9836,-0.987,-0.9886,-0.9906,-0.9917,-0.9949,-0.9968,-0.996,-0.9981,-1.0004,-1.003,-1.0063,-1.0089,-1.0146,-1.0152,-1.0182,-1.0175,-1.0221,-1.018,-1.0183,-1.0179,-1.0178,-1.0182,-1.023,-1.0231,-1.0233,-1.0233,0,-0.9943,-0.994,-0.9968,-0.9996,-1.0019,-1.0041,-1.006,-1.0078,-1.0072,-1.0096,-1.0131,-1.0151,-1.0191,-1.0225,-1.0253,-1.0263,-1.0248,-1.0246,-1.0257,-1.0263,-1.0264,-1.0266,-1.0125,-1.0243,-1.0242,-1.0242,-1.0241,-1.0241,-1.0021,-1.0051,-1.0067,-1.0099,-1.0113,-1.0132,-1.016,-1.0165,-1.0194,-1.0226,-1.0219,-1.0259,-1.0276,-1.0313,-1.0325,-1.0357,-1.0341,-1.0357,-1.0361,-1.0366,-1.0372,-1.0257,-1.0362,-1.0361,-1.0361,-1.0361,-1.0361,0,-1.0129,-1.0138,-1.0167,-1.0196,-1.0221,-1.0203,-1.0224,-1.0247,-1.0282,-1.0299,-1.0325,-1.0366,-1.0398,-1.0406,-1.0437,-1.046,-1.0455,-1.0469,-1.0469,-1.0471,-1.0384,-1.0372,-1.0474,-1.0474,-1.0474,-1.0474,-1.0473,-1.0473,-1.0188,-1.0238,-1.0237,-1.0294,-1.0303,-1.0341,-1.0355,-1.0373,-1.0386,-1.0433,-1.0459,-1.0464,-1.0478,-1.0509,-1.0538,-1.054,-1.0553,-1.0571,-1.057,-1.0489,-1.0477,-1.0467,-1.0455,-1.0573,-1.0574,-1.0656,-1.0656,-1.0657]},{"header":{"parameterUnit":"m.s-1","parameterCategory":1,"la1":30.2991,"la2":30.254,"lo1":-89.0895,"lo2":-89.0444,"dy":0.0017,"dx":0.0017,"nx":28,"ny":28,"refTime":"2025-09-18T21:00:00:Z","depth":0,"parameterNumber":3,"parameterNumberName":"V-component_of_WINDS"},"data":[0,0,0,0,0,0,0,0,0,0,0,0,0,0,0,0,0,0,0,0,0,0,0,0,0,0,0,0,0,0,0,0,0,0,0,0,0,0,0,0,0,0,0,0,0,0,0,0,0,0,0,0,0,0,0,0,0,0,-2.2827,-2.2827,0,-2.286,-2.2861,-2.2861,-2.2834,-2.2833,-2.2832,-2.2831,-2.2862,-2.2864,-2.2866,0,0,0,0,0,0,0,0,0,0,0,0,0,-2.2737,-2.2738,-2.2827,-2.2827,-2.2827,-2.286,-2.2861,-2.2861,-2.2834,-2.2833,-2.2831,-2.283,-2.2862,-2.2864,-2.2866,0,0,0,0,0,0,0,0,0,0,0,0,0,-2.2774,-2.2739,-2.2826,-2.2818,-2.2818,-2.286,-2.2861,-2.2861,-2.2834,-2.2833,-2.2831,-2.2829,-2.2861,-2.2864,-2.2867,-2.2918,0,0,-2.2875,-2.2876,0,0,0,0,0,0,0,0,-2.2771,-2.2777,-2.2819,-2.2819,-2.2818,-2.2841,-2.2841,-2.288,-2.2835,-2.2828,-2.2831,-2.2829,-2.2856,-2.286,-2.287,-2.292,-2.2921,-2.2876,-2.2877,-2.2878,-2.2879,0,0,0,0,0,0,0,-2.2769,-2.2775,-2.284,-2.2819,-2.2819,-2.2812,-2.2815,-2.2848,-2.2851,-2.2828,-2.2827,-2.2831,-2.2856,-2.2867,-2.287,-2.2922,-2.2875,-2.2878,-2.288,-2.2881,-2.3017,-2.3019,0,0,0,0,0,0,-2.2768,-2.2773,-2.2839,-2.2841,-2.279,-2.2815,-2.2819,-2.2836,-2.2851,-2.2852,-2.2833,-2.283,-2.2863,-2.2867,-2.2871,-2.2934,-2.2878,-2.2881,-2.2883,-2.3015,-2.3018,-2.302,0,0,0,0,0,0,-2.2766,-2.2774,-2.2837,-2.2807,-2.2814,-2.2818,-2.2837,-2.2837,-2.2848,-2.2854,-2.2854,-2.2843,-2.2862,-2.2867,-2.2907,-2.2935,-2.2882,-2.2885,-2.3013,-2.3016,-2.3019,-2.3059,0,0,0,0,0,0,-2.2763,-2.2773,-2.2793,-2.2807,-2.2816,-2.2874,-2.2839,-2.2839,-2.2853,-2.285,-2.2864,-2.2865,-2.2861,-2.2903,-2.291,-2.2938,-2.2887,-2.3011,-2.3014,-2.3018,-2.3056,-2.3063,-2.307,0,0,0,0,0,-2.276,-2.2803,-2.2795,-2.2803,-2.2841,-2.2875,-2.288,-2.2876,-2.2856,-2.2876,-2.288,-2.2864,-2.293,-2.2907,-2.2915,-2.2944,-2.3009,-2.3013,-2.3017,-2.3053,-2.3062,-2.307,0,0,0,0,0,0,-2.2791,-2.2804,-2.2795,-2.2844,-2.2859,-2.2871,-2.2896,-2.2885,-2.2905,-2.2901,-2.2894,-2.2897,-2.294,-2.2945,-2.292,-2.2995,-2.2966,-2.2972,-2.299,-2.2999,-2.3006,-2.3005,-2.289,0,0,0,0,0,-2.2803,-2.2831,-2.284,-2.2882,-2.289,-2.2892,-2.2906,-2.2902,-2.2917,-2.2922,-2.2929,-2.2943,-2.2967,-2.2983,-2.3006,-2.3056,-2.3059,-2.3079,-2.3087,-2.3092,-2.3098,-2.3126,-2.3136,-2.3034,-2.3034,-2.3034,0,0,-2.2829,-2.284,-2.2857,-2.2889,-2.29,-2.2928,-2.2897,-2.2928,-2.2949,-2.2927,-2.2966,-2.2971,-2.2987,-2.3033,-2.3053,-2.3039,-2.3127,-2.3098,-2.3102,-2.3105,-2.3132,-2.3141,-2.315,-2.3037,-2.3036,-2.3036,0,0,-2.2891,-2.2901,-2.2938,-2.295,-2.2968,-2.2969,-2.2978,-2.2992,-2.2995,-2.3034,-2.3019,-2.3042,-2.3083,-2.3096,-2.3107,-2.3174,-2.3161,-2.3182,-2.3219,-2.3247,-2.3255,-2.3262,-2.3287,-2.3296,-2.3187,-2.3187,-2.3187,0,-2.292,-2.2963,-2.2958,-2.2991,-2.3005,-2.2987,-2.3025,-2.3036,-2.3059,-2.307,-2.3053,-2.3106,-2.3114,-2.3164,-2.318,-2.319,-2.32,-2.3181,-2.3254,-2.3261,-2.3268,-2.3292,-2.3301,-2.319,-2.3189,-2.3189,-2.3189,0,-2.2999,-2.3029,-2.3056,-2.3082,-2.3099,-2.3133,-2.3133,-2.3151,-2.3145,-2.3147,-2.3188,-2.3198,-2.3223,-2.3234,-2.3227,-2.3282,-2.3273,-2.3255,-2.3226,-2.328,-2.3303,-2.3312,-2.3193,-2.3192,-2.3191,-2.3191,0,0,-2.3082,-2.3104,-2.3115,-2.3126,-2.3145,-2.3167,-2.3201,-2.3226,-2.3242,-2.3259,-2.3287,-2.3323,-2.3308,-2.3321,-2.3315,-2.3339,-2.3394,-2.3319,-2.3319,-2.3334,-2.3456,-2.347,-2.3481,-2.3384,-2.3386,-2.3387,-2.3455,0,-2.3146,-2.3206,-2.3203,-2.3259,-2.3287,-2.3271,-2.33,-2.3314,-2.3317,-2.3341,-2.3344,-2.337,-2.3347,-2.3355,-2.3378,-2.3382,-2.3418,-2.3377,-2.3411,-2.3412,-2.3409,-2.3493,-2.3507,-2.3571,-2.3464,-2.3465,-2.3467,0,-2.3228,-2.325,-2.331,-2.3325,-2.3337,-2.3363,-2.3387,-2.3409,-2.3425,-2.3426,-2.3441,-2.3432,-2.3466,-2.3435,-2.3482,-2.3454,-2.3467,-2.3471,-2.3474,-2.3478,-2.3444,-2.35,-2.3591,-2.3601,-2.348,-2.3479,-2.3478,0,-2.3284,-2.3328,-2.337,-2.338,-2.3399,-2.3418,-2.3426,-2.344,-2.3456,-2.3476,-2.3487,-2.351,-2.3523,-2.3541,-2.3538,-2.3516,-2.3586,-2.3555,-2.3588,-2.3588,-2.3604,-2.3604,-2.37,-2.3611,-2.361,-2.361,-2.361,0,-2.3357,-2.3394,-2.3395,-2.3421,-2.3463,-2.3458,-2.3499,-2.3505,-2.3518,-2.3544,-2.353,-2.3555,-2.355,-2.3574,-2.3572,-2.3612,-2.3617,-2.3619,-2.3618,-2.3621,-2.3621,-2.3631,-2.3627,-2.3613,-2.3612,-2.3612,-2.3611,0,-2.3427,-2.3429,-2.3474,-2.3488,-2.3493,-2.3523,-2.3535,-2.3559,-2.3561,-2.3595,-2.3603,-2.3606,-2.3634,-2.3633,-2.3665,-2.3663,-2.3713,-2.3706,-2.3708,-2.3707,-2.3741,-2.3738,-2.3848,-2.3863,-2.3762,-2.3763,-2.3764,0,-2.3474,-2.3503,-2.3521,-2.3539,-2.3549,-2.3577,-2.3593,-2.3589,-2.3607,-2.3628,-2.365,-2.3677,-2.3699,-2.3745,-2.3749,-2.3774,-2.3768,-2.3805,-2.3772,-2.3774,-2.3771,-2.377,-2.3773,-2.3812,-2.3813,-2.3814,-2.3815,0,-2.3558,-2.3558,-2.3583,-2.3609,-2.3629,-2.3649,-2.3667,-2.3682,-2.368,-2.37,-2.373,-2.3747,-2.378,-2.3808,-2.3831,-2.3839,-2.3827,-2.3825,-2.3834,-2.3838,-2.3839,-2.3841,-2.3727,-2.3823,-2.3822,-2.3821,-2.3821,-2.3821,-2.3619,-2.3644,-2.3662,-2.369,-2.3704,-2.3721,-2.3746,-2.3751,-2.3776,-2.3804,-2.38,-2.3833,-2.3848,-2.3879,-2.3889,-2.3915,-2.3901,-2.3914,-2.3918,-2.3922,-2.3926,-2.3834,-2.3918,-2.3918,-2.3918,-2.3918,-2.3918,0,-2.3703,-2.3714,-2.374,-2.3767,-2.379,-2.3777,-2.3797,-2.3816,-2.3846,-2.3862,-2.3884,-2.3919,-2.3946,-2.3953,-2.3978,-2.3998,-2.3993,-2.4005,-2.4004,-2.4006,-2.3936,-2.3926,-2.4008,-2.4008,-2.4008,-2.4008,-2.4008,-2.4008,-2.375,-2.3793,-2.3795,-2.3844,-2.3854,-2.3888,-2.3901,-2.3917,-2.393,-2.3969,-2.3992,-2.3997,-2.4009,-2.4036,-2.406,-2.4061,-2.4072,-2.4086,-2.4086,-2.402,-2.4011,-2.4002,-2.3993,-2.4088,-2.4088,-2.4154,-2.4155,-2.4155]}]]